Location: *
(55.6049°S, 142.1985°W)
Time: 01:08:18
(UTC+00:00)

SL-16 R/B - Pass Details

Date: 12 May 2021
Orbit: 842 x 847 km, 71.0° (Epoch: 18 June)

Event Time Altitude Azimuth Distance (km) Brightness Sun altitude
Exits shadow 15:47:11 16° 250° (WSW) 2,098 3.6 -12.0°
Maximum altitude 15:49:33 21° 281° (W) 1,855 3.5 -11.7°
Drops below altitude 10° 15:53:38 10° 327° (NNW) 2,483 4.5 -11.1°
Sets 15:56:39 0° 342° (NNW) 3,411 5.4 -10.7°
